Theta_e
315 317 318 316 319 316 316 316 313 318 317 314 313 314 316 314 315 319 321 326 329 330 335 338 341 341 340 338 340 336 334 330 335 340 339 340 339 336 337 334 333 333 331 329 324 315 308 307 318
317 318 316 310 315 315 317 311 316 315 314 312 314 314 316 317 314 318 322 328 329 331 334 338 342 341 341 338 337 337 336 332 335 339 339 340 336 335 334 332 331 330 330 328 323 314 305 302 309
317 315 314 311 309 314 315 312 314 313 312 314 315 313 315 317 315 318 322 327 330 332 333 337 341 341 341 340 339 339 338 333 334 338 339 337 337 336 333 330 330 329 329 327 320 313 303 302 305
316 311 308 313 315 313 312 311 311 313 313 313 313 315 312 315 316 320 322 327 330 332 332 336 340 342 342 341 341 340 338 334 335 337 339 338 336 333 332 331 329 328 327 326 320 312 303 302 305
311 308 313 313 313 312 309 311 312 314 313 314 313 315 314 314 322 323 323 327 330 332 333 334 338 342 341 341 341 340 338 336 335 336 338 338 334 332 331 329 327 327 326 325 321 312 303 302 305
312 306 312 313 313 312 310 309 311 312 311 311 313 313 313 314 319 324 325 327 328 332 333 333 336 340 341 340 341 341 338 337 335 335 337 337 334 332 330 328 325 326 325 324 321 316 304 302 304
311 307 308 310 311 313 313 307 311 311 310 313 312 313 312 312 314 323 324 325 329 332 333 333 334 337 340 340 340 340 338 337 336 337 337 337 334 332 329 329 324 322 324 324 321 318 307 302 302
308 309 311 311 312 313 311 310 310 311 312 308 311 311 311 309 314 318 323 323 325 331 333 334 334 336 337 339 338 338 338 337 336 336 337 337 335 332 329 329 329 326 321 321 321 318 313 303 300
305 307 307 309 310 312 311 312 309 307 309 308 308 309 308 311 314 316 318 320 323 326 331 333 334 335 337 337 338 337 336 336 336 335 334 336 332 331 329 329 329 328 324 320 319 318 317 309 302
307 306 307 307 308 312 312 311 311 311 309 310 309 307 304 306 307 306 306 306 310 314 320 327 333 334 337 339 337 336 335 335 336 335 334 333 333 331 330 330 328 327 326 324 321 319 317 314 306
309 309 307 310 309 311 312 311 309 311 312 309 309 306 303 303 302 302 303 303 304 306 308 312 325 333 334 339 335 336 334 334 334 334 334 332 332 333 330 329 329 327 325 324 323 321 318 315 312
313 312 310 312 311 311 312 310 312 310 309 304 303 303 301 301 301 300 301 302 305 307 308 308 313 327 334 338 334 333 333 334 333 333 332 330 331 332 330 330 328 328 326 325 323 322 319 316 314
313 312 310 311 309 309 309 310 311 308 302 303 302 301 300 300 299 300 301 303 305 309 311 311 310 321 332 337 332 331 332 333 333 333 330 328 330 330 330 329 328 327 325 323 322 320 319 317 315
308 309 309 308 309 308 310 308 308 305 303 303 302 300 299 298 297 298 299 301 305 309 314 314 310 320 331 332 330 331 329 327 327 329 330 330 328 328 328 328 326 325 323 321 321 320 318 317 316
309 311 308 308 308 309 307 310 309 303 303 302 301 299 298 296 296 295 296 298 301 308 312 318 321 325 328 329 328 327 326 326 326 325 325 326 325 325 325 323 323 322 320 321 320 318 316 316 315
309 307 312 311 309 308 309 312 305 303 304 302 300 298 297 296 294 294 296 298 303 309 313 317 319 323 324 325 325 325 322 322 321 321 321 322 320 322 321 321 320 319 320 318 318 316 316 315 314
307 312 309 311 308 308 309 311 305 303 303 302 299 297 296 295 294 294 295 297 301 306 310 314 317 319 320 320 317 315 314 313 312 313 313 314 315 316 317 316 315 315 315 314 313 312 312 311 311
311 310 309 310 310 309 309 309 304 302 302 300 297 296 296 295 294 293 294 296 300 304 306 308 310 309 310 311 309 308 307 305 304 305 305 307 308 309 310 310 310 310 309 309 308 308 308 308 307
308 309 311 309 308 309 308 308 306 302 300 299 297 296 296 295 293 292 293 294 296 301 305 305 305 303 306 306 305 299 295 296 299 297 298 301 303 304 305 304 305 305 305 304 304 306 306 306 304
309 309 309 308 307 308 308 309 304 302 301 299 298 297 296 294 293 292 291 292 293 295 297 300 302 303 302 302 297 294 292 290 289 289 290 291 292 292 293 294 293 293 294 295 295 296 298 300 300
307 308 308 311 310 308 309 311 306 301 299 298 297 296 295 294 293 291 290 289 291 292 292 294 295 296 295 294 293 291 289 288 288 287 287 287 287 287 287 287 287 287 287 286 286 286 289 293 294
311 306 308 310 311 314 309 318 307 303 300 298 297 295 294 293 292 290 289 288 288 289 289 290 291 292 292 292 291 290 287 286 286 287 287 287 287 287 287 286 286 286 286 286 286 285 285 285 289
313 307 308 310 311 309 308 311 308 302 302 300 297 295 293 292 291 290 288 287 288 288 288 288 288 288 288 289 289 288 287 287 287 287 286 286 286 286 285 285 285 285 284 284 284 284 284 285 285
306 307 307 305 306 311 310 311 310 306 305 300 297 295 294 292 290 289 288 287 287 287 287 287 288 287 288 288 288 287 287 287 287 286 286 286 286 285 285 285 284 284 283 283 283 283 283 283 283
306 309 313 314 312 314 308 309 311 305 302 301 298 295 293 291 290 289 288 287 286 286 287 287 287 287 287 287 287 287 287 286 286 286 286 285 285 285 284 284 283 282 282 282 282 282 282 282 282
306 309 314 315 315 314 310 313 312 302 300 300 298 296 293 291 289 288 287 287 287 287 287 287 287 287 287 287 287 287 287 286 286 286 286 286 285 284 284 283 282 282 282 281 281 281 281 281 281
308 309 308 309 296 308 311 309 302 300 299 299 297 295 293 291 289 288 287 287 287 287 287 288 287 287 287 287 287 287 287 287 286 286 286 286 285 283 282 282 282 282 281 281 281 281 281 281 280
307 306 311 309 311 311 311 311 312 304 300 298 297 295 294 291 289 288 288 287 287 287 287 287 288 287 287 287 287 287 287 286 286 286 285 283 281 280 280 280 280 280 280 279 279 279 279 279 280
308 309 308 309 310 311 309 310 304 304 301 299 298 296 294 291 290 289 288 288 287 287 287 287 287 287 287 287 287 286 286 285 284 282 280 280 280 280 280 280 280 280 279 279 278 277 277 277 278
307 307 309 313 309 306 307 310 300 302 301 299 298 296 293 291 289 288 287 287 287 287 287 287 287 287 287 286 285 285 284 283 282 281 280 280 279 279 279 279 278 277 276 275 275 275 274 274 275
Wind_Speed
7 5 2 4 4 4 1 1 1 0 1 1 2 2 2 2 3 2 1 11 2 16 25 24 21 18 15 15 14 13 12 12 12 11 11 11 11 12 12 12 11 13 12 12 12 12 10 7 6
5 3 4 2 4 3 3 3 2 2 2 1 1 1 2 0 1 3 2 11 4 17 25 23 20 18 15 15 13 11 11 11 11 10 8 10 11 11 10 9 9 10 11 11 11 12 10 8 5
2 3 3 4 3 4 3 3 2 2 1 2 2 1 3 1 1 1 1 10 5 14 23 22 20 18 15 14 13 12 11 11 9 9 8 10 10 10 5 6 6 7 10 10 10 11 10 9 6
2 5 4 4 3 2 2 2 3 2 1 2 1 3 2 1 2 3 2 7 6 15 18 20 19 17 16 15 13 11 11 10 9 8 9 10 9 6 3 6 6 6 9 9 9 9 9 8 7
5 3 4 4 1 1 3 3 2 1 0 2 2 0 0 2 2 2 4 8 6 11 14 19 19 17 16 15 15 13 12 10 9 8 8 7 5 2 4 8 7 7 8 8 9 9 8 7 8
4 3 4 2 2 2 3 2 2 1 1 3 1 1 1 3 2 3 6 5 5 8 10 16 17 17 15 12 13 13 12 11 9 8 8 7 6 1 5 8 7 6 7 7 8 9 7 7 6
6 4 4 4 2 3 1 3 3 2 1 1 0 1 0 6 3 1 2 3 4 6 8 12 16 17 16 14 12 11 11 11 9 8 8 8 6 2 4 9 12 7 7 6 7 9 7 5 5
4 4 3 2 3 3 1 1 2 1 1 5 1 1 2 5 6 0 1 1 2 5 7 9 13 16 17 16 13 12 10 10 9 8 7 8 6 2 2 8 11 12 9 5 7 9 9 6 4
3 4 2 4 6 3 1 2 1 2 1 3 3 4 6 9 6 3 4 4 3 1 5 8 10 14 16 17 15 13 12 10 9 7 7 9 6 4 4 7 8 10 10 8 9 9 10 9 5
4 3 6 4 4 3 1 1 2 1 3 2 2 6 15 14 14 13 11 9 7 6 4 7 11 12 14 15 16 14 12 11 10 8 7 6 8 8 6 4 4 7 10 10 9 10 10 10 8
2 4 3 2 4 2 2 2 1 0 2 2 2 3 11 16 17 15 12 11 12 11 10 10 11 14 14 13 12 13 13 12 10 9 8 7 8 8 5 6 5 6 7 9 11 12 10 9 8
1 1 4 2 2 1 2 2 2 4 1 5 8 8 6 13 14 13 12 13 14 10 8 8 13 15 14 12 11 9 12 13 11 10 8 5 7 6 7 6 5 6 7 8 8 11 10 9 9
2 2 2 3 5 5 1 4 3 3 7 9 13 14 11 12 12 13 13 13 14 13 10 4 10 14 14 13 10 6 3 4 5 5 6 5 7 8 8 7 6 5 5 6 9 10 10 9 10
5 2 5 6 3 4 4 1 5 3 5 10 10 10 10 12 12 12 18 17 18 15 13 8 6 12 13 12 9 9 7 6 5 6 3 1 2 4 4 5 3 3 5 7 8 8 9 10 12
2 4 6 4 2 4 6 3 2 4 7 9 9 8 9 12 14 15 15 16 17 16 15 15 14 15 17 18 17 16 14 16 17 18 15 9 7 5 3 3 5 5 6 6 6 6 7 10 12
2 4 3 2 3 1 4 3 2 2 5 7 7 7 9 12 13 15 17 17 18 17 19 22 23 23 24 25 26 26 24 24 23 21 21 19 18 17 15 14 15 13 11 8 8 9 10 12 13
5 3 4 7 3 2 2 3 5 5 7 6 5 6 7 8 14 16 17 18 20 21 22 26 28 29 30 31 31 31 30 29 27 26 24 22 20 18 18 18 17 15 14 13 12 12 13 15 17
7 4 4 5 2 2 3 7 4 7 7 7 6 7 8 9 10 13 16 19 22 25 28 30 31 33 34 35 34 34 33 31 29 27 26 24 23 20 20 19 18 17 16 15 14 13 15 16 18
6 4 5 4 3 4 7 6 1 4 6 7 7 8 8 8 7 14 18 21 24 27 28 28 29 28 30 30 31 32 34 33 31 30 28 26 24 23 21 21 20 19 19 18 18 16 17 15 20
3 4 5 4 4 4 6 8 1 4 2 3 8 8 8 6 8 13 19 24 27 29 30 31 30 29 31 33 35 36 37 36 35 33 33 31 29 28 28 26 26 25 23 23 23 22 18 12 18
5 6 5 7 2 3 2 5 5 3 4 6 5 5 5 6 8 9 15 22 26 31 31 32 31 33 34 35 36 36 36 33 32 32 32 31 29 29 29 28 27 26 26 27 26 26 24 16 17
6 9 7 6 4 4 1 5 3 4 5 4 6 5 6 6 6 8 11 19 25 28 32 34 35 34 32 31 32 33 33 30 27 28 27 28 27 27 27 26 26 26 25 25 24 22 23 22 16
5 6 7 4 3 1 2 1 3 6 6 8 8 8 6 6 6 7 12 19 22 26 30 32 32 32 30 31 31 33 33 29 26 25 25 25 25 26 26 25 24 24 23 22 22 22 21 19 16
9 6 5 4 3 3 10 9 4 6 7 11 9 8 9 8 7 10 14 19 21 23 27 29 30 30 29 29 29 29 27 24 24 23 23 22 22 22 23 24 24 23 23 23 22 21 19 18 16
3 6 1 1 1 6 1 4 7 5 4 15 19 15 12 9 8 9 12 17 20 22 23 25 27 27 25 26 25 24 23 22 21 20 20 21 23 24 26 26 27 27 27 25 24 23 22 21 19
8 7 5 7 4 2 2 6 5 1 3 6 15 14 11 10 8 9 15 19 20 21 21 22 23 23 20 20 20 18 18 18 18 19 19 21 23 24 25 27 28 30 31 32 31 29 26 24 24
6 6 4 5 2 2 4 4 1 3 3 12 15 13 13 11 9 10 16 19 21 20 20 20 18 18 16 15 13 13 12 13 14 14 15 17 18 20 21 23 25 26 28 28 28 29 31 32 30
4 8 3 1 2 4 3 4 5 7 10 11 16 17 15 11 9 11 17 21 20 18 18 16 14 13 10 9 9 8 8 8 8 9 11 13 14 17 21 25 27 30 31 31 30 30 27 28 29
4 4 2 4 4 5 1 5 4 8 15 19 18 17 17 16 14 12 18 23 22 19 17 15 11 9 7 6 5 4 3 3 5 8 11 15 18 22 24 27 28 30 31 31 31 29 28 25 27
2 7 7 5 5 2 2 6 1 3 13 15 17 18 15 15 13 16 20 24 22 20 17 15 12 10 6 6 7 6 3 5 10 13 16 18 21 23 25 26 28 28 27 27 26 28 28 26 27
Wind_Direction
346 350 27 47 63 65 55 146 276 260 284 220 120 153 153 162 156 176 324 181 151 174 176 173 174 180 175 166 163 157 152 146 139 134 132 125 111 94 83 57 53 55 49 44 41 40 38 50 68
5 13 57 80 82 68 291 265 198 211 231 291 128 97 63 41 263 296 63 162 139 168 175 176 174 181 179 175 173 168 160 154 149 144 141 133 106 83 76 51 38 45 48 46 39 30 31 40 59
8 41 79 88 106 147 171 229 248 270 254 171 122 36 158 218 296 298 17 183 151 169 176 177 176 179 184 186 184 179 171 165 158 156 146 135 122 114 98 53 34 43 49 45 35 29 30 43 53
18 27 47 76 112 196 163 309 224 334 357 36 128 106 295 262 321 332 325 165 153 170 181 183 181 177 183 192 188 187 179 172 164 153 147 136 138 122 67 15 22 56 52 45 35 30 36 47 60
49 57 61 81 273 253 258 276 281 86 298 334 338 150 302 3 1 38 125 158 157 172 183 188 188 183 187 197 196 191 188 182 175 167 158 162 153 144 27 26 70 63 47 43 33 29 35 50 69
44 90 66 162 256 280 273 267 262 82 354 311 71 31 331 1 50 99 123 157 166 178 179 190 194 191 187 199 207 199 193 187 185 182 178 179 177 167 37 31 71 65 45 40 27 23 30 46 65
106 76 167 161 237 310 212 327 159 153 343 323 185 60 80 40 16 131 135 157 176 182 190 195 201 200 195 202 212 218 206 198 194 191 187 186 186 203 48 13 42 40 41 38 16 17 22 36 65
101 91 117 214 191 209 249 339 166 84 236 314 176 56 18 345 356 348 105 88 165 194 203 206 209 209 205 203 210 214 228 216 210 203 196 193 201 209 358 348 10 21 22 27 360 10 9 12 35
119 65 161 204 165 205 322 71 192 314 318 351 5 71 25 3 17 52 34 35 23 332 237 228 221 215 215 210 212 217 215 236 225 218 206 191 190 223 272 308 348 3 18 15 352 348 1 6 13
83 108 214 190 200 184 292 152 290 306 15 306 40 65 31 44 47 45 28 1 336 306 259 241 233 226 218 216 212 216 225 222 232 225 219 216 212 227 244 296 338 338 5 3 355 345 349 355 2
144 173 198 218 228 202 167 276 189 170 299 191 274 17 28 37 42 40 24 6 342 322 290 244 225 226 220 212 211 213 221 230 232 228 220 235 241 241 254 276 305 330 342 343 344 341 339 344 347
73 231 194 253 155 153 218 151 258 192 122 72 72 74 54 38 32 22 13 5 355 345 326 267 222 212 215 205 202 214 227 224 230 233 218 254 254 244 251 257 272 308 325 339 349 340 333 336 340
159 263 195 266 278 258 0 221 237 333 99 86 74 59 49 41 28 25 18 17 12 7 355 324 211 195 195 189 185 188 218 223 248 234 213 242 251 243 243 247 274 296 338 346 347 330 330 332 337
183 245 274 271 219 236 216 103 140 125 122 72 65 60 52 45 26 22 22 16 21 20 25 40 144 169 167 161 155 108 88 77 101 92 97 200 240 229 239 262 296 1 357 351 335 346 344 342 341
113 311 320 252 218 225 162 107 110 97 91 72 56 50 46 37 35 30 24 24 23 38 52 70 98 127 135 133 127 112 101 92 85 81 81 78 69 52 32 44 59 18 5 359 342 334 327 327 327
73 45 346 280 155 22 171 229 5 311 108 84 67 50 44 34 29 32 39 44 48 60 74 96 109 120 123 119 113 104 99 92 85 79 77 74 69 74 73 60 53 49 42 31 12 354 345 339 333
4 222 215 315 206 102 176 230 183 339 112 108 80 60 54 38 29 31 46 58 64 69 85 98 107 112 113 110 105 100 93 85 79 76 73 71 68 68 64 58 51 43 39 31 20 6 354 345 334
194 205 224 231 186 165 192 257 126 21 107 114 99 80 64 52 27 24 53 70 81 84 87 95 102 105 107 106 102 95 89 83 77 74 69 66 65 63 61 56 51 46 40 32 24 12 4 358 346
142 180 193 234 242 179 229 242 27 108 110 126 113 102 87 69 37 55 68 77 83 90 96 95 98 98 104 102 98 89 82 79 77 72 70 67 66 65 64 59 54 48 43 36 27 18 10 5 353
156 168 232 280 228 172 254 253 340 29 73 138 135 118 106 92 57 50 65 77 81 86 90 95 98 101 99 99 97 95 90 83 80 75 71 68 65 63 61 59 56 51 48 41 35 30 26 20 12
206 188 205 222 359 235 323 252 206 56 97 103 94 109 95 94 86 57 57 73 82 85 88 92 95 99 100 102 102 99 94 87 79 72 69 64 62 59 56 54 52 50 47 43 38 33 30 19 17
224 204 180 183 139 234 126 283 236 167 149 153 144 137 123 108 87 80 74 78 85 90 94 94 97 98 100 103 99 93 89 85 79 76 71 65 59 55 51 48 43 40 38 36 32 28 25 21 18
235 145 162 144 171 88 219 284 243 140 204 190 180 166 151 139 123 111 104 101 98 97 96 96 95 92 91 91 91 92 91 88 82 74 69 61 55 49 44 40 36 33 28 25 21 17 15 13 8
146 83 62 68 113 248 209 188 228 191 196 172 177 175 167 157 147 137 125 120 110 106 104 102 97 93 92 89 88 88 88 85 77 66 60 52 46 41 34 27 23 20 15 10 5 1 358 355 349
155 123 90 325 223 230 66 180 254 185 177 174 173 178 174 166 164 159 152 137 126 119 112 107 102 99 95 91 86 83 81 77 72 63 52 41 32 26 19 12 9 6 1 356 351 347 343 340 334
184 168 171 205 200 230 113 226 253 4 268 173 170 169 161 169 173 172 166 151 140 132 123 117 111 107 99 92 89 82 74 65 58 46 36 31 19 10 5 -0 356 352 350 347 344 342 338 333 326
181 197 159 108 35 58 217 272 228 97 56 152 163 160 175 180 180 178 173 162 152 143 134 127 120 112 105 93 82 70 55 45 39 32 19 13 4 354 351 349 344 342 340 336 333 329 327 325 323
174 154 102 16 188 252 264 263 237 199 183 170 173 180 183 181 180 183 181 171 163 153 144 138 130 118 110 98 78 58 41 29 21 9 0 358 350 349 349 346 343 341 338 335 333 328 323 317 314
149 173 86 137 163 187 236 251 215 197 179 183 185 185 184 184 186 186 186 177 171 164 159 149 152 135 128 95 72 72 81 57 11 1 357 355 350 349 345 341 338 334 331 329 326 320 317 312 309
194 189 167 170 209 217 151 259 353 234 176 175 184 189 192 187 183 185 185 182 174 173 169 165 172 160 146 137 127 114 66 0 355 352 349 346 343 339 336 334 332 330 328 325 320 317 315 311 309